Weather reports worldwide

Advertisment
Le Luc, France (7675): temperature & dewpoint: 16.06.2018 20:00:00 - 22.06.2018 20:00:00 (CEST)Le Luc, France (7675): temperature 5cm: 16.06.2018 20:00:00 - 22.06.2018 20:00:00 (CEST)Le Luc, France (7675): wind speed & gusts: 16.06.2018 20:00:00 - 22.06.2018 20:00:00 (CEST)Le Luc, France (7675): wind direction: 16.06.2018 20:00:00 - 22.06.2018 20:00:00 (CEST)Le Luc, France (7675): reduced air pressure: 16.06.2018 20:00:00 - 22.06.2018 20:00:00 (CEST)Le Luc, France (7675): visibility: 16.06.2018 20:00:00 - 22.06.2018 20:00:00 (CEST)Le Luc, France (7675): sunshine duration: 16.06.2018 20:00:00 - 22.06.2018 20:00:00 (CEST)Le Luc, France (7675): precipitation: 16.06.2018 20:00:00 - 22.06.2018 20:00:00 (CEST)
Date & Time tt [°C] td [°C] tt 5cm [°C] ff [km/h] ff [kn] fx [km/h] fx [kn] dd ppp [hPa] vv [km] sd [min] rr [mm]
22.06.2018 20:00:00 27,1 20,2 27,3 12 7 19 10 ENE 1012,0 25 52 0,0
22.06.2018 19:00:00 27,2 19,8 28,1 14 7 23 12 ENE 1011,5 25 33 0,0
22.06.2018 18:00:00 28,5 19,4 30,8 18 10 24 13 E 1011,2 25 38 0,0
22.06.2018 17:00:00 29,7 20,0 33,5 17 9 29 16 ESE 1010,8 24 55 0,0
22.06.2018 16:00:00 29,7 20,0 35,9 18 10 26 14 ESE 1010,4 30 60 0,0
22.06.2018 15:00:00 30,0 19,7 33,7 16 9 31 17 ESE 1010,3 29 52 0,0
22.06.2018 14:00:00 30,7 16,3 37,1 10 6 23 12 NE 1010,3 40 60 0,0
22.06.2018 13:00:00 29,7 16,1 36,4 9 5 30 16 ENE 1010,4 40 60 0,0
22.06.2018 12:00:00 29,1 15,6 34,0 15 8 31 17 W 1010,5 30 60 0,0
22.06.2018 11:00:00 27,6 14,9 32,4 16 9 32 18 WNW 1010,5 40 60 0,0
22.06.2018 10:00:00 26,4 14,8 27,0 21 11 33 18 WNW 1010,7 40 50 0,0
22.06.2018 09:00:00 24,3 15,0 26,2 17 9 35 19 W 1010,9 40 54 0,0
22.06.2018 08:00:00 23,0 15,6 19,6 14 8 22 12 WSW 1010,9 40 10 0,0
22.06.2018 07:00:00 20,5 15,7 16,8 0 0 13 7 N 1011,2 40 0 0,0
22.06.2018 06:00:00 20,1 16,3 16,7 0 0 7 4 N 1011,4 18 0 0,0
22.06.2018 05:00:00 21,2 16,4 18,6 4 2 11 6 NW 1011,4 20 0 0,0
22.06.2018 04:00:00 23,5 16,8 20,3 7 4 15 8 W 1011,5 20 0 0,0
22.06.2018 03:00:00 23,9 16,9 21,6 8 5 16 9 S 1011,8 20 0 0,0
22.06.2018 02:00:00 24,1 16,6 22,0 8 5 24 13 SSW 1012,1 20 0 0,0
22.06.2018 01:00:00 24,5 15,7 22,4 11 6 16 9 WSW 1012,7 20 0 0,0
22.06.2018 00:00:00 24,8 15,1 21,6 5 3 10 5 SW 1013,0 20 0 0,0
21.06.2018 23:00:00 25,8 15,8 23,5 8 4 10 5 W 1013,1 20 0 0,0
21.06.2018 22:00:00 26,4 18,3 23,6 2 1 10 5 WSW 1012,9 20 0 0,0
21.06.2018 21:00:00 27,4 18,1 26,6 5 3 13 7 E 1012,9 20 53 0,0
21.06.2018 20:00:00 29,2 18,0 27,9 6 3 18 10 WNW 1012,9 20 29 0,0
21.06.2018 19:00:00 28,0 19,2 28,4 11 6 34 19 NE 1013,5 20 32 0,0
21.06.2018 18:00:00 29,3 19,3 31,1 16 9 29 15 NNE 1012,8 20 5 0,0
21.06.2018 17:00:00 32,7 16,5 34,6 17 9 30 16 WSW 1012,8 35 28 0,0
21.06.2018 16:00:00 33,4 16,7 34,8 15 8 31 17 SW 1013,2 40 47 0,0
21.06.2018 15:00:00 32,4 16,3 35,0 9 5 29 16 S 1014,1 34 33 0,0
21.06.2018 14:00:00 32,4 17,8 37,5 6 3 13 7 NW 1014,8 25 46 0,0
21.06.2018 13:00:00 31,6 18,9 39,1 6 3 12 7 N 1015,3 25 60 0,0
21.06.2018 12:00:00 30,4 18,8 38,1 5 3 11 6 NE 1016,0 20 60 0,0
21.06.2018 11:00:00 29,5 18,0 36,8 2 1 6 3 E 1016,3 20 60 0,0
21.06.2018 10:00:00 28,1 18,5 32,8 2 1 5 3 ENE 1016,8 20 60 0,0
21.06.2018 09:00:00 25,2 19,3 27,4 0 0 5 3 N 1017,1 20 60 0,0
21.06.2018 08:00:00 22,5 18,3 19,5 0 0 6 3 N 1017,2 20 60 0,0
21.06.2018 07:00:00 18,6 16,9 15,9 2 1 6 3 WNW 1017,4 20 37 0,0
21.06.2018 06:00:00 18,0 16,3 15,6 0 0 4 2 N 1017,4 20 0 0,0
21.06.2018 05:00:00 18,1 16,3 16,3 4 2 5 3 SE 1017,6 29 0 0,0
21.06.2018 04:00:00 18,9 16,7 16,6 2 1 4 2 N 1017,9 39 0 0,0
21.06.2018 03:00:00 19,4 16,6 17,0 0 0 5 3 N 1018,1 45 0 0,0
21.06.2018 02:00:00 20,1 16,7 18,3 2 1 5 3 SE 1018,3 41 0 0,0
21.06.2018 01:00:00 21,5 17,7 19,5 2 1 5 3 WNW 1018,4 46 0 0,0
21.06.2018 00:00:00 22,1 16,8 19,9 0 0 7 4 N 1018,6 46 0 0,0
20.06.2018 23:00:00 23,3 16,1 21,0 5 3 10 5 SSW 1018,7 49 0 0,0
20.06.2018 22:00:00 24,2 17,4 21,8 2 1 8 5 WNW 1018,4 6 0 0,0
20.06.2018 21:00:00 26,1 16,6 23,9 4 2 7 4 SSW 1018,2 49 0 0,0
20.06.2018 20:00:00 27,4 16,1 26,1 6 4 9 5 NNW 1018,1 40 11 0,0
20.06.2018 19:00:00 29,2 13,8 28,6 3 1 6 4 WSW 1017,9 42 8 0,0
20.06.2018 18:00:00 28,7 14,5 28,3 4 2 11 6 SW 1018,0 40 0 0,0
20.06.2018 17:00:00 29,1 14,1 29,5 9 5 16 9 ESE 1018,3 40 0 0,0
20.06.2018 16:00:00 29,6 12,9 31,4 12 6 23 13 SE 1018,6 40 8 0,0
20.06.2018 15:00:00 30,3 13,6 32,4 13 7 28 15 ESE 1018,9 40 31 0,0
20.06.2018 14:00:00 30,9 13,7 33,1 15 8 31 17 SE 1019,0 40 49 0,0
20.06.2018 13:00:00 30,7 14,3 32,8 15 8 32 17 E 1019,5 40 55 0,0
20.06.2018 12:00:00 29,6 16,4 33,9 18 10 30 16 E 1019,7 40 60 0,0
20.06.2018 11:00:00 28,8 17,0 32,8 12 6 22 12 NE 1019,6 28 55 0,0
20.06.2018 10:00:00 27,0 17,5 31,7 5 3 11 6 ENE 1019,8 28 60 0,0
20.06.2018 09:00:00 24,7 18,4 27,1 0 0 4 2 N 1019,9 20 60 0,0
20.06.2018 08:00:00 21,7 18,5 19,2 0 0 4 2 N 1019,9 20 60 0,0
20.06.2018 07:00:00 18,3 17,0 15,7 0 0 5 3 N 1019,7 10 31 0,0
20.06.2018 06:00:00 17,7 16,2 15,7 0 0 4 2 N 1019,1 15 0 0,0
20.06.2018 05:00:00 18,0 16,5 16,0 0 0 4 2 N 1018,9 16 0 0,0
20.06.2018 04:00:00 18,6 16,9 16,6 0 0 0 0 N 1018,8 17 0 0,0
20.06.2018 03:00:00 19,3 17,1 17,3 2 1 4 2 NW 1018,8 26 0 0,0
20.06.2018 02:00:00 20,4 17,8 17,8 0 0 2 1 N 1018,9 30 0 0,0
20.06.2018 01:00:00 22,3 17,4 19,3 2 1 6 3 SSE 1018,8 43 0 0,0
20.06.2018 00:00:00 22,7 17,6 20,1 5 3 13 7 SE 1018,8 34 0 0,0
19.06.2018 23:00:00 23,9 18,1 20,8 0 0 4 2 N 1018,4 19 0 0,0
19.06.2018 22:00:00 26,5 16,7 23,9 2 1 9 5 SW 1017,8 45 0 0,0
19.06.2018 21:00:00 27,1 16,1 25,3 5 3 15 8 SW 1017,4 49 1 0,0
19.06.2018 20:00:00 28,3 16,2 27,3 8 4 16 9 WSW 1017,4 40 23 0,0
19.06.2018 19:00:00 29,8 16,6 29,8 13 7 22 12 WSW 1017,5 40 51 0,0
19.06.2018 18:00:00 30,8 15,2 34,4 10 6 22 12 ESE 1017,7 27 57 0,0
19.06.2018 17:00:00 31,0 15,4 30,9 15 8 24 13 ESE 1017,9 40 9 0,0
19.06.2018 16:00:00 31,4 15,0 34,6 11 6 26 14 ESE 1018,1 40 50 0,0
19.06.2018 15:00:00 31,8 13,5 37,4 17 9 33 18 SE 1018,2 40 60 0,0
19.06.2018 14:00:00 31,3 14,9 36,5 10 5 28 15 SE 1018,5 40 60 0,0
19.06.2018 13:00:00 31,2 15,6 37,3 12 7 25 14 E 1018,7 40 60 0,0
19.06.2018 12:00:00 30,1 16,9 37,5 8 4 20 11 ESE 1018,9 40 60 0,0
19.06.2018 11:00:00 28,9 18,4 34,5 4 2 8 5 E 1019,0 20 60 0,0
19.06.2018 10:00:00 26,2 17,8 31,3 3 1 8 4 W 1019,3 30 60 0,0
19.06.2018 09:00:00 23,6 17,3 26,4 2 1 5 3 NE 1019,4 30 60 0,0
19.06.2018 08:00:00 21,0 17,4 19,0 3 1 5 3 E 1019,1 30 60 0,0
19.06.2018 07:00:00 18,8 16,4 15,5 2 1 3 2 E 1018,9 20 42 0,0
19.06.2018 06:00:00 17,6 15,4 15,3 2 1 3 2 WSW 1018,5 28 0 0,0
19.06.2018 05:00:00 17,7 15,9 15,7 0 0 4 2 N 1018,1 27 0 0,0
19.06.2018 04:00:00 18,7 16,8 16,3 2 1 4 2 WNW 1017,7 27 0 0,0
19.06.2018 03:00:00 19,0 17,0 16,8 2 1 4 2 ENE 1017,6 30 0 0,0
19.06.2018 02:00:00 19,9 16,9 17,4 0 0 5 3 N 1017,3 37 0 0,0
19.06.2018 01:00:00 21,4 17,0 18,7 0 0 5 3 N 1017,1 41 0 0,0
19.06.2018 00:00:00 22,9 16,9 21,0 3 2 12 7 SSW 1017,2 42 0 0,0
18.06.2018 23:00:00 24,1 17,1 22,3 3 2 9 5 S 1016,9 20 0 0,0
18.06.2018 22:00:00 25,7 15,4 23,7 5 3 16 9 WSW 1016,4 46 0 0,0
18.06.2018 21:00:00 26,9 15,3 25,2 7 4 13 7 WSW 1015,9 44 52 0,0
18.06.2018 20:00:00 28,3 15,2 27,3 9 5 15 8 WSW 1015,7 30 56 0,0
18.06.2018 19:00:00 29,3 16,8 29,5 10 5 16 9 SW 1015,5 30 40 0,0
18.06.2018 18:00:00 29,2 16,0 28,5 10 5 19 10 ESE 1015,6 30 8 0,0
18.06.2018 17:00:00 29,5 16,0 29,4 9 5 18 10 ESE 1015,7 40 19 0,0
18.06.2018 16:00:00 31,0 14,6 33,7 13 7 25 14 SE 1015,5 30 45 0,0
18.06.2018 15:00:00 31,0 15,0 36,8 14 8 34 18 ESE 1015,6 30 60 0,0
18.06.2018 14:00:00 30,8 15,6 37,3 18 10 30 16 SE 1015,6 30 60 0,0
18.06.2018 13:00:00 29,7 17,2 37,7 5 3 12 7 NNE 1015,8 30 60 0,0
18.06.2018 12:00:00 28,1 17,9 33,5 5 3 10 5 E 1015,9 30 60 0,0
18.06.2018 11:00:00 26,4 16,9 33,7 3 2 11 6 WNW 1016,0 30 60 0,0
18.06.2018 10:00:00 24,4 16,4 30,5 3 1 10 6 NW 1016,2 30 60 0,0
18.06.2018 09:00:00 22,5 14,9 24,5 3 2 10 6 SSW 1016,1 30 60 0,0
18.06.2018 08:00:00 20,2 13,6 18,8 7 4 15 8 WSW 1015,9 30 60 0,0
18.06.2018 07:00:00 18,1 13,2 16,4 5 3 10 6 W 1015,8 30 24 0,0
18.06.2018 06:00:00 18,0 12,7 16,5 6 3 12 7 SW 1015,2 20 0 0,0
18.06.2018 05:00:00 18,7 13,1 17,1 6 4 13 7 SSW 1014,6 20 0 0,0
18.06.2018 04:00:00 19,6 13,3 17,7 7 4 15 8 SW 1014,5 20 0 0,0
18.06.2018 03:00:00 20,1 13,3 17,8 4 2 14 8 SW 1014,4 20 0 0,0
18.06.2018 02:00:00 21,2 13,6 19,2 11 6 18 10 WSW 1014,2 20 0 0,0
18.06.2018 01:00:00 21,7 14,1 20,0 10 5 16 8 WSW 1014,4 20 0 0,0
18.06.2018 00:00:00 22,1 14,2 20,2 6 3 19 10 SSW 1014,6 20 0 0,0
17.06.2018 23:00:00 23,5 15,0 21,9 10 5 23 12 WSW 1014,5 20 0 0,0
17.06.2018 22:00:00 25,3 15,9 22,2 8 5 16 9 W 1014,0 20 0 0,0
17.06.2018 21:00:00 26,2 16,7 24,8 12 7 29 16 WNW 1013,6 20 37 0,0
17.06.2018 20:00:00 27,3 18,0 27,1 11 6 19 10 NNW 1013,2 20 49 0,0
17.06.2018 19:00:00 28,0 19,8 28,1 5 3 21 11 E 1013,2 20 32 0,0
17.06.2018 18:00:00 28,6 16,5 30,9 15 8 23 13 ESE 1013,1 20 40 0,0
17.06.2018 17:00:00 29,3 15,4 31,0 14 8 21 12 ESE 1013,1 20 40 0,0
17.06.2018 16:00:00 30,3 16,0 36,3 11 6 22 12 E 1013,2 20 60 0,0
17.06.2018 15:00:00 30,1 15,8 32,5 14 8 25 13 SE 1013,4 20 50 0,0
17.06.2018 14:00:00 29,5 18,6 32,2 8 5 21 12 ESE 1013,7 20 50 0,0
17.06.2018 13:00:00 28,7 17,6 37,1 7 4 15 8 N 1014,0 20 60 0,0
17.06.2018 12:00:00 27,9 17,4 34,0 3 2 14 8 ESE 1014,1 20 60 0,0
17.06.2018 11:00:00 26,5 17,3 33,7 0 0 8 4 N 1014,1 20 60 0,0
17.06.2018 10:00:00 24,5 17,7 30,9 3 2 5 3 S 1014,2 20 60 0,0
17.06.2018 09:00:00 22,5 16,8 25,0 0 0 7 4 N 1014,1 20 60 0,0
17.06.2018 08:00:00 20,4 16,4 18,2 4 2 7 4 E 1013,8 20 60 0,0
17.06.2018 07:00:00 17,3 15,6 14,3 0 0 5 3 N 1014,2 19 36 0,0
17.06.2018 06:00:00 16,2 14,7 14,4 0 0 4 2 N 1013,7 20 0 0,0
17.06.2018 05:00:00 16,9 15,8 14,8 0 0 7 4 N 1013,4 20 0 0,0
17.06.2018 04:00:00 18,0 16,3 16,3 4 2 7 4 WNW 1013,0 20 0 0,0
17.06.2018 03:00:00 18,2 16,5 16,1 0 0 5 3 N 1012,9 20 0 0,0
17.06.2018 02:00:00 19,9 16,5 17,5 3 1 13 7 SSE 1012,9 20 0 0,0
17.06.2018 01:00:00 20,6 17,2 19,2 6 4 16 9 W 1012,8 20 0 0,0
17.06.2018 00:00:00 20,9 17,7 19,5 3 2 13 7 SSW 1012,9 20 0 0,0
16.06.2018 23:00:00 21,7 17,9 20,4 5 3 13 7 WSW 1012,9 20 0 0,0
16.06.2018 22:00:00 22,4 17,7 21,2 5 3 13 7 W 1012,9 20 0 0,0
16.06.2018 21:00:00 22,5 18,3 21,5 3 2 8 4 WNW 1012,3 19 13 0,0
16.06.2018 20:00:00 23,3 17,5 24,1 2 1 26 14 NNW 1012,1 20 17 0,0

tt = temperature
td = dewpoint
tt 5cm = temperature 5cm
ff = wind speed
fx = gusts
dd = wind direction
ppp = reduced air pressure
vv = visibility
sd = sunshine duration
rr = precipitation

Next stations